Date String (YYYY-MM-DD hh:mm:ss) UTC,Instrument flags,Ambient pressure (hPa),Sample flow (lpm),Bypass flow (lpm),Sample temperature (°C),Ambient temperature (°C),ASC tube jacket temperature (°C),LED temperature (°C),Box temperature (°C),Sample RH (%),Span deviation,Mass concentration (μg/m³),Mass concentration (μg/m³),Mass concentration (μg/m³)
DateTimeUTC,F1_M11,P_M11,Q1_M11,Q2_M11,T1_M11,T2_M11,T3_M11,T4_M11,T5_M11,U1_M11,ZSPAN_M11,X0_M11,X2_M11,X1_M11
2022-07-31 00:00:00,,0828.0,5.00,0.00,29.4,27.8,00.0,38.2,31.3,20.4,0000.0,0010.05,0005.33,0005.01
2022-07-31 00:01:00,,0828.0,4.99,0.00,29.4,28.0,00.0,38.2,31.4,19.4,0000.0,0010.22,0005.33,0005.01
2022-07-31 00:02:00,,0828.0,5.00,0.00,29.5,28.2,00.0,38.2,31.4,20.0,0000.0,0010.55,0005.30,0004.99
2022-07-31 00:03:00,,0828.0,5.00,0.00,29.5,28.4,00.0,38.2,31.5,19.5,0000.0,0010.40,0005.28,0004.99
2022-07-31 00:04:00,,0828.0,4.99,0.00,29.6,28.2,00.0,38.2,31.5,19.1,0000.0,0010.61,0005.25,0004.97
2022-07-31 00:05:00,,0828.0,5.01,0.00,29.5,27.4,00.0,38.2,31.3,19.4,0000.0,0010.74,0005.26,0004.97
2022-07-31 00:06:00,,0827.9,5.00,0.00,29.5,27.2,00.0,38.2,31.2,19.7,0000.0,0010.96,0005.27,0004.97
2022-07-31 00:07:00,,0828.0,4.99,0.00,29.4,27.2,00.0,38.1,31.2,19.9,0000.0,0010.68,0005.28,0004.96
2022-07-31 00:08:00,,0827.9,5.00,0.00,29.4,27.4,00.0,38.1,31.2,20.7,0000.0,0010.78,0005.27,0004.95
2022-07-31 00:09:00,,0827.9,5.00,0.00,29.4,27.6,00.0,38.1,31.2,20.2,0000.0,0011.10,0005.28,0004.94
2022-07-31 00:10:00,,0827.9,5.01,0.00,29.4,27.8,00.0,38.1,31.3,19.5,0000.0,0011.58,0005.28,0004.94
2022-07-31 00:11:00,,0827.9,5.00,0.00,29.4,28.0,00.0,38.2,31.4,19.4,0000.0,0012.08,0005.30,0004.94
2022-07-31 00:12:00,,0827.8,5.00,0.00,29.5,28.2,00.0,38.2,31.5,18.9,0000.0,0011.74,0005.29,0004.94
2022-07-31 00:13:00,,0827.9,5.01,0.00,29.5,28.4,00.0,38.2,31.5,19.4,0000.0,0011.80,0005.33,0004.94
2022-07-31 00:14:00,,0827.9,5.00,0.00,29.6,28.3,00.0,38.2,31.5,19.6,0000.0,0012.06,0005.36,0004.93
2022-07-31 00:15:00,,0828.0,4.99,0.00,29.5,27.5,00.0,38.2,31.3,18.5,0000.0,0011.74,0005.36,0004.94
2022-07-31 00:16:00,,0828.1,5.00,0.00,29.5,27.2,00.0,38.2,31.2,18.8,0000.0,0011.83,0005.38,0004.95
2022-07-31 00:17:00,,0828.0,5.01,0.00,29.4,27.3,00.0,38.2,31.2,20.0,0000.0,0011.95,0005.38,0004.95
2022-07-31 00:18:00,,0827.9,4.99,0.00,29.4,27.4,00.0,38.2,31.2,20.5,0000.0,0012.38,0005.39,0004.96
2022-07-31 00:19:00,,0827.9,5.00,0.00,29.4,27.6,00.0,38.1,31.2,21.2,0000.0,0012.62,0005.42,0004.97
2022-07-31 00:20:00,,0828.0,5.00,0.00,29.4,27.8,00.0,38.1,31.3,20.2,0000.0,0012.37,0005.41,0004.97
2022-07-31 00:21:00,,0827.9,5.01,0.00,29.4,28.0,00.0,38.2,31.3,19.3,0000.0,0012.03,0005.39,0004.95
2022-07-31 00:22:00,,0827.9,4.99,0.00,29.5,28.2,00.0,38.2,31.4,19.3,0000.0,0011.59,0005.40,0004.95
2022-07-31 00:23:00,,0827.9,5.00,0.00,29.5,28.4,00.0,38.2,31.5,18.9,0000.0,0012.00,0005.43,0004.95
2022-07-31 00:24:00,,0828.0,4.99,0.00,29.6,28.3,00.0,38.2,31.5,18.9,0000.0,0011.53,0005.41,0004.95
2022-07-31 00:25:00,,0827.9,5.00,0.00,29.5,27.7,00.0,38.2,31.3,19.0,0000.0,0011.14,0005.40,0004.96
2022-07-31 00:26:00,,0827.9,5.01,0.00,29.5,27.2,00.0,38.2,31.2,18.9,0000.0,0011.09,0005.40,0004.95
2022-07-31 00:27:00,,0827.9,4.99,0.00,29.4,27.2,00.0,38.2,31.2,18.8,0000.0,0010.73,0005.38,0004.94
2022-07-31 00:28:00,,0828.0,4.99,0.00,29.4,27.3,00.0,38.2,31.2,18.8,0000.0,0010.42,0005.38,0004.94
2022-07-31 00:29:00,,0828.0,5.01,0.00,29.4,27.5,00.0,38.2,31.2,18.9,0000.0,0009.62,0005.36,0004.93
2022-07-31 00:30:00,,0828.0,5.00,0.00,29.4,27.7,00.0,38.2,31.3,19.1,0000.0,0009.29,0005.33,0004.92
2022-07-31 00:31:00,,0828.1,4.99,0.00,29.4,28.0,00.0,38.2,31.3,19.2,0000.0,0009.48,0005.33,0004.91
2022-07-31 00:32:00,,0828.1,5.01,0.00,29.5,28.1,00.0,38.2,31.4,19.0,0000.0,0009.20,0005.34,0004.92
2022-07-31 00:33:00,,0828.1,4.99,0.00,29.5,28.3,00.0,38.2,31.5,19.0,0000.0,0008.85,0005.30,0004.91
2022-07-31 00:34:00,,0828.1,5.01,0.00,29.6,28.3,00.0,38.2,31.5,19.1,0000.0,0008.33,0005.25,0004.91
2022-07-31 00:35:00,,0828.1,5.00,0.00,29.5,27.7,00.0,38.2,31.4,19.3,0000.0,0008.64,0005.24,0004.91
2022-07-31 00:36:00,,0828.2,5.00,0.00,29.5,27.2,00.0,38.2,31.2,19.2,0000.0,0009.97,0005.26,0004.89
2022-07-31 00:37:00,,0828.2,5.00,0.00,29.4,27.2,00.0,38.2,31.2,19.7,0000.0,0010.07,0005.27,0004.89
2022-07-31 00:38:00,,0828.3,5.00,0.00,29.4,27.3,00.0,38.2,31.1,19.5,0000.0,0009.99,0005.26,0004.89
2022-07-31 00:39:00,,0828.2,5.00,0.00,29.4,27.5,00.0,38.2,31.2,19.5,0000.0,0010.12,0005.22,0004.88
2022-07-31 00:40:00,,0828.2,5.00,0.00,29.4,27.7,00.0,38.2,31.2,19.2,0000.0,0010.49,0005.20,0004.87
2022-07-31 00:41:00,,0828.2,5.00,0.00,29.4,27.9,00.0,38.2,31.3,20.2,0000.0,0011.27,0005.19,0004.87
2022-07-31 00:42:00,,0828.3,4.99,0.00,29.4,28.1,00.0,38.2,31.4,20.1,0000.0,0011.10,0005.19,0004.88
2022-07-31 00:43:00,,0828.3,5.01,0.00,29.5,28.3,00.0,38.2,31.5,20.3,0000.0,0011.31,0005.23,0004.88
2022-07-31 00:44:00,,0828.3,5.00,0.00,29.5,28.4,00.0,38.2,31.5,20.1,0000.0,0011.42,0005.27,0004.89
2022-07-31 00:45:00,,0828.3,5.01,0.00,29.6,28.2,00.0,38.2,31.5,20.3,0000.0,0011.42,0005.30,0004.90
2022-07-31 00:46:00,,0828.3,5.00,0.00,29.5,27.5,00.0,38.2,31.3,19.6,0000.0,0011.61,0005.32,0004.90
2022-07-31 00:47:00,,0828.4,4.99,0.00,29.5,27.2,00.0,38.2,31.2,19.8,0000.0,0010.41,0005.31,0004.91
2022-07-31 00:48:00,,0828.4,5.01,0.00,29.4,27.2,00.0,38.2,31.2,22.1,0000.0,0010.79,0005.29,0004.91
2022-07-31 00:49:00,,0828.4,4.99,0.00,29.4,27.4,00.0,38.2,31.2,23.7,0000.0,0011.45,0005.30,0004.91
2022-07-31 00:50:00,,0828.5,5.00,0.00,29.4,27.5,00.0,38.2,31.2,24.2,0000.0,0011.72,0005.33,0004.92
2022-07-31 00:51:00,,0828.5,4.99,0.00,29.4,27.8,00.0,38.2,31.3,23.6,0000.0,0011.95,0005.34,0004.92
2022-07-31 00:52:00,,0828.5,5.00,0.00,29.4,28.0,00.0,38.2,31.3,23.6,0000.0,0011.64,0005.35,0004.92
2022-07-31 00:53:00,,0828.4,5.00,0.00,29.5,28.2,00.0,38.2,31.4,23.4,0000.0,0011.76,0005.35,0004.91
2022-07-31 00:54:00,,0828.4,4.99,0.00,29.5,28.3,00.0,38.2,31.5,23.7,0000.0,0011.70,0005.34,0004.92
2022-07-31 00:55:00,,0828.3,5.01,0.00,29.6,28.4,00.0,38.2,31.5,23.9,0000.0,0011.47,0005.30,0004.93
2022-07-31 00:56:00,,0828.3,4.99,0.00,29.6,28.0,00.0,38.2,31.4,23.7,0000.0,0011.59,0005.32,0004.93
2022-07-31 00:57:00,,0828.3,5.00,0.00,29.5,27.3,00.0,38.2,31.2,23.4,0000.0,0011.71,0005.31,0004.93
2022-07-31 00:58:00,,0828.3,5.00,0.00,29.4,27.1,00.0,38.2,31.2,23.3,0000.0,0011.75,0005.31,0004.92
2022-07-31 00:59:00,,0828.4,5.01,0.00,29.4,27.2,00.0,38.2,31.1,23.2,0000.0,0011.29,0005.30,0004.92
